Location: Girdwood
(60.9430°N, 149.1660°W)
Time: 17:30:52
(UTC-08:00)

Iridium 86 - Visible Passes

Search period start: 29 September 2016 00:00
Search period end: 09 October 2016 00:00
Orbit: 776 x 779 km, 86.4° (Epoch: 29 September)

Date Brightness Start Highest point End Pass type
(mag) Time Alt. Az. Time Alt. Az. Time Alt. Az.
29 Sep 8.4 06:33:59 10° ESE 06:37:51 21° ENE 06:41:43 10° NNE visible
29 Sep 7.0 20:12:23 10° NNW 20:17:21 45° W 20:22:17 10° SSW visible
29 Sep 9.1 21:55:07 10° NW 21:56:50 12° WNW 21:58:32 10° W visible
30 Sep 8.8 06:01:53 10° E 06:04:43 15° ENE 06:07:33 10° NNE visible
30 Sep 8.7 21:20:30 10° NNW 21:23:46 17° WNW 21:27:02 10° WSW visible
01 Oct 7.3 07:06:15 10° SSE 07:11:03 39° E 07:15:52 10° NNE visible
01 Oct 8.2 20:46:27 10° NNW 20:50:37 24° WNW 20:54:44 10° SW visible
02 Oct 8.0 06:33:28 10° SE 06:37:46 27° ENE 06:42:05 10° NNE visible
02 Oct 7.5 20:12:37 10° NNW 20:17:21 35° W 20:22:03 10° SW visible
03 Oct 8.5 06:01:04 10° ESE 06:04:34 19° ENE 06:08:06 10° NNE visible
03 Oct 8.9 21:21:08 10° NW 21:23:36 14° WNW 21:26:05 10° W visible
04 Oct 8.9 05:29:17 10° E 05:31:30 13° ENE 05:33:42 10° NE visible
04 Oct 6.7 07:06:03 10° SSE 07:11:04 49° E 07:16:06 10° NNE visible
04 Oct 8.5 20:46:50 10° NNW 20:50:31 20° WNW 20:54:10 10° WSW visible
05 Oct 7.5 06:33:05 10° SE 06:37:42 33° E 06:42:22 10° NNE visible
05 Oct 7.9 20:12:53 10° NNW 20:17:18 28° WNW 20:21:42 10° SW visible
06 Oct 8.1 06:00:26 10° SE 06:04:28 23° ENE 06:08:30 10° NNE visible
06 Oct 9.1 21:22:20 10° NW 21:23:25 11° WNW 21:24:30 10° WNW visible
07 Oct 8.6 05:28:14 10° ESE 05:31:19 16° ENE 05:34:24 10° NNE visible
07 Oct 6.1 07:05:58 10° S 07:11:07 63° E 07:16:17 10° N visible
07 Oct 8.6 20:47:21 10° NNW 20:50:22 16° WNW 20:53:24 10° WSW visible
08 Oct 8.9 04:57:00 10° ENE 04:58:16 11° ENE 04:59:33 10° NE visible
08 Oct 6.9 06:32:49 10° SSE 06:37:41 42° E 06:42:37 10° NNE visible
08 Oct 8.3 20:13:14 10° NNW 20:17:14 23° WNW 20:21:13 10° WSW visible
